Main page
METAR-TAF:

METAR-TAF

Airports :

South Texas Regional Airport at Hondo

Hondo, Texas, United States

latitude: 29-21-34N, longitude: 099-10-27W, elevation: 928 ft

Current weather observation

The report was made 59 minutes ago, at 17:51 UTC
Wind 5 mph from variable directions
Temperature 88°F
Humidity 55%
Pressure 29.96 in. Hg
Visibility: 10 miles
Clear sky

METAR: KHDO 121751Z AUTO VRB04KT 10SM CLR 31/21 A2996 RMK AO2 SLP129 T03110211 10311 20228 58003 PWINO

Time: 13:50 (18:50 UTC)


TAF: missing

Weather observations and forecasts of more than 4000 airports (METAR and TAF reports).

The available stations are represented by yellow and red dots on the map.

Hover mouse over dot to see the name of the station.

Then click to see weather observations and forecasts.

To change the map : click on the green buttons with a black cross to zoom in, on the green button with a dash to zoom out, or on the green arrows for adjacent maps.


METAR-TAF: